Regional Weather Roundup
Issued by NWS

Home | Current Version | Previous Version | Text Only | Print | Product List | Glossary On
Versions: 1 2 3 4 5 6 7 8 9 10 11 12 13 14 15 16 17 18 19 20 21 22 23 24 25 26 27 28 29 30 31 32 33 34 35 36 37 38 39 40 41 42 43 44 45 46 47 48 49 50
000
ASUS44 KLIX 081910
RWRLA
LOUISIANA WEATHER ROUNDUP
NATIONAL WEATHER SERVICE NEW ORLEANS LA
100 PM CST MON FEB 08 2016

NOTE: "FAIR" INDICATES FEW OR NO CLOUDS BELOW 12,000 FEET WITH NO
      SIGNIFICANT WEATHER AND/OR OBSTRUCTIONS TO VISIBILITY.
      SKY/WX - SKY CONDITION AND SIGNIFICANT WEATHER.
      TMP - AIR TEMPERATURE.    DP   - DEWPOINT TEMPERATURE.
      RH  - RELATIVE HUMIDITY.  PRES - PRESSURE.
      HX  - HEAT INDEX.         WCI  - WIND CHILL INDEX.

*  THESE STATIONS ARE NOT NWS OR FAA STATIONS AND ARE NOT UNDER
   NWS QUALITY CONTROL.

LAZ040-048-061>063-065-066-069-082000-
SOUTHEAST LOUISIANA

CITY           SKY/WX    TMP DP  RH WIND       PRES   REMARKS
N.O. AUDUBON   NOT AVBL
N.O. INTL ARPT SUNNY     60  16  18 W26G36    30.05F
N.O. LAKEFRONT SUNNY     56  33  42 W24G35    30.05F
N.O. DOWNTOWN* FAIR      57  21  24 MISG      30.06F
RESERVE*       FAIR      60  15  17 NW21G32   30.06F
SLIDELL        SUNNY     58  18  21 NW12G31   30.02F
BATON ROUGE    SUNNY     59  16  18 NW18G29   30.07F
BOOTHVILLE     SUNNY     60  31  33 W22G30    30.04F
BELLE CHASSE   MOSUNNY   59  18  20 NW16G30   30.04F
BOGALUSA*        N/A     58  16  19 W23       30.02F
GALLIANO*      CLEAR    N/A N/A N/A NW17G29   30.06F
NEW ROADS*     FAIR      56  20  24 NW22G37   30.09F
GONZALES*      FAIR      58  18  20 NW14G28   30.07F
HAMMOND*       SUNNY     59  12  15 NW22G31   30.03F
HOUMA*         SUNNY     61  21  21 W23G31    30.09F
PORT FOURCHON* CLEAR     59  30  33 W23G31    30.07F

$$

LAZ041-044-053-054-082000-
SOUTHWEST LOUISIANA

CITY           SKY/WX    TMP DP  RH WIND       PRES   REMARKS
LAKE CHARLES   SUNNY     60  14  16 NW18G30   30.17F
LAFAYETTE      SUNNY     60  15  17 W24G32    30.12F
PATTERSON      SUNNY     57  21  24 NW16G32   30.10F
SALT POINT       N/A     57  34  41 NW18G26     N/A
NEW IBERIA     SUNNY     60  18  19 NW24G30   30.12F
CHENAULT AIRPK SUNNY     61  14  16 NW22G35   30.18F

$$

LAZ027-028-082000-
CENTRAL LOUISIANA

CITY           SKY/WX    TMP DP  RH WIND       PRES   REMARKS
FORT POLK      SUNNY     56  16  20 NW26      30.15F
ALEXANDRIA INT SUNNY     57  19  22 NW30G38   30.11F
ALEXANDRIA       N/A     58  16  19 W17G31    30.10F

$$

LAZ001-002-082000-
NORTHWEST LOUISIANA

CITY           SKY/WX    TMP DP  RH WIND       PRES   REMARKS
SHREVEPORT     SUNNY     54  16  22 W23G43    30.15F
BARKSDALE AFB  SUNNY     53  16  23 NW23G32   30.14F
DTN SHREVEPORT SUNNY     53  15  22 W18G37    30.16F

$$

LAZ014-016-082000-
NORTHEAST LOUISIANA

CITY           SKY/WX    TMP DP  RH WIND       PRES   REMARKS
MONROE         SUNNY     52  18  26 NW25G31   30.08F
TALLULAH       MOSUNNY   50  20  30 W21G30    30.06F

$$




USA.gov is the U.S. government's official web portal to all federal, state and local government web resources and services.